Location: *
(48.7358°N, 0.3111°E)
Time: 17:33:58
(UTC+00:00)

Cosmos 1892 Rocket - Pass Details

Date: 22 October 2019
Orbit: 605 x 634 km, 82.5° (Epoch: 20 November)

Event Time Altitude Azimuth Distance (km) Brightness Sun altitude
Rises 04:41:05 0° 188° (S) 2,898 6.9 -18.4°
Reaches altitude 10° 04:43:19 10° 189° (S) 1,992 6.0 -18.1°
Maximum altitude 04:47:44 88° 278° (W) 628 3.5 -17.4°
Drops below altitude 10° 04:52:10 10° 9° (N) 1,990 6.3 -16.6°
Sets 04:54:23 0° 10° (N) 2,896 7.2 -16.3°
